Greenville/Spartanburg, SC

10:49 AM EDT on March 23, 2017 (GMT -0400)
Greenville-Spartanburg International

Weather History for KGSP - May, 2014

Change the Weather History Date:

Friday, May 16, 2014

  Actual Average Record
Temperature  
Mean Temperature 60 °F 69 °F  
Max Temperature 72 °F 80 °F 93 °F (1962)
Min Temperature 48 °F 57 °F 42 °F (1978)
Degree Days  
Heating Degree Days 5 1  
Month to date heating degree days 15 29  
Since 1 July heating degree days 3187 3035  
Cooling Degree Days 0 5  
Month to date cooling degree days 100 55  
Year to date cooling degree days 142 103  
Growing Degree Days 10 (Base 50)    
Moisture  
Dew Point 40 °F    
Average Humidity 53    
Maximum Humidity 72    
Minimum Humidity 33    
Precipitation  
Precipitation T in 0.12 in 1.72 in (1922)
Month to date precipitation 2.11 1.94  
Year to date precipitation 17.49 17.61  
Snow  
Snow 0.00 in 0.00 in 0.00 in ()
Month to date snowfall 0.0 0.0  
Since 1 July snowfall 7.2 4.7  
Snow Depth 0.00 in    
Sea Level Pressure  
Sea Level Pressure 29.97 in    
Wind  
Wind Speed 8 mph (WNW)    
Max Wind Speed 21 mph    
Max Gust Speed 30 mph    
Visibility 10 miles    
Events      
T = Trace of Precipitation, MM = Missing Value Source: NWS Daily Summary

Daily Weather History Graph

Daily Weather History Graph

Search for Another Location

Airport or City:

Trip Planner

Search our weather history database for the weather conditions in past years. The results will help you decide how hot, cold, wet, or windy it might be!

Date:

Astronomy

May. 16, 2014 Rise Set
Actual Time 6:24 AM EDT 8:26 PM EDT
Civil Twilight 5:56 AM EDT 8:54 PM EDT
Nautical Twilight 5:22 AM EDT 9:28 PM EDT
Astronomical Twilight 4:45 AM EDT 10:05 PM EDT
Moon 10:31 PM EDT (5/16) 8:05 AM EDT (5/16)
Length of Visible Light 14h 57m
Length of Day
14h 01m
Waning Gibbous, 95% of the Moon is Illuminated
May 16
Waning Gibbous
May 21
Last Quarter
May 28
New
Jun 5
First Quarter
Jun 13
Full

Hourly Weather History & Observations

Time (EDT) Temp. Dew Point Humidity Pressure Visibility Wind Dir Wind Speed Gust Speed Precip Events Conditions
12:53 AM 55.9 °F 46.9 °F 72% 29.91 in 10.0 mi NW 3.5 mph - N/A   Overcast
1:53 AM 55.4 °F 44.6 °F 67% 29.93 in 10.0 mi Variable 4.6 mph - N/A   Scattered Clouds
2:53 AM 54.0 °F 43.0 °F 66% 29.90 in 10.0 mi NNW 4.6 mph - N/A   Scattered Clouds
3:53 AM 51.8 °F 42.8 °F 71% 29.91 in 10.0 mi Variable 5.8 mph - N/A   Clear
4:53 AM 52.0 °F 39.9 °F 63% 29.91 in 10.0 mi Variable 6.9 mph - N/A   Clear
5:53 AM 51.1 °F 39.0 °F 63% 29.92 in 10.0 mi WNW 4.6 mph - N/A   Clear
6:53 AM 48.9 °F 39.9 °F 71% 29.95 in 10.0 mi West 4.6 mph - N/A   Clear
7:53 AM 53.1 °F 39.9 °F 61% 29.95 in 10.0 mi NW 8.1 mph - N/A   Clear
8:53 AM 57.0 °F 39.9 °F 53% 29.97 in 10.0 mi WNW 8.1 mph - N/A   Clear
9:53 AM 59.0 °F 39.9 °F 49% 30.00 in 10.0 mi West 9.2 mph - N/A   Clear
10:53 AM 62.1 °F 39.0 °F 43% 29.99 in 10.0 mi Variable 5.8 mph - N/A   Clear
11:53 AM 64.0 °F 39.0 °F 40% 29.99 in 10.0 mi North - - N/A   Clear
12:53 PM 66.9 °F 41.0 °F 39% 29.97 in 10.0 mi WSW 13.8 mph - N/A   Clear
1:53 PM 69.1 °F 42.1 °F 38% 29.96 in 10.0 mi West 16.1 mph 26.5 mph N/A   Scattered Clouds
2:53 PM 70.0 °F 39.9 °F 33% 29.94 in 10.0 mi WSW 20.7 mph 26.5 mph N/A   Scattered Clouds
3:53 PM 60.8 °F 44.6 °F 55% 29.97 in 10.0 mi NW 9.2 mph 21.9 mph N/A   Overcast
4:53 PM 64.9 °F 45.0 °F 48% 29.96 in 10.0 mi WSW 6.9 mph - 0.00 in   Overcast
5:53 PM 66.0 °F 41.0 °F 40% 29.97 in 10.0 mi West 18.4 mph - N/A   Partly Cloudy
6:53 PM 64.0 °F 39.9 °F 41% 29.98 in 10.0 mi WNW 10.4 mph - N/A   Scattered Clouds
7:53 PM 62.1 °F 34.0 °F 35% 30.01 in 10.0 mi Variable 5.8 mph - N/A   Scattered Clouds
8:53 PM 57.9 °F 37.0 °F 46% 30.04 in 10.0 mi WNW 10.4 mph - N/A   Clear
9:53 PM 55.0 °F 37.9 °F 53% 30.06 in 10.0 mi NW 9.2 mph - N/A   Clear
10:53 PM 53.6 °F 37.4 °F 54% 30.10 in 10.0 mi Calm Calm - N/A   Clear
11:53 PM 52.0 °F 39.0 °F 61% 30.10 in 10.0 mi Calm Calm - N/A   Clear